Zurück zum Katalog

NOAA 16 DEB

AktivPO
NORAD 41379·DEBRIS·🇺🇸 United States

Gestartet Sep 21, 2000 von Vandenberg Space Force Base

Loading…

Nächste Überflüge (nächste 24 Stunden)

TLE

AktuellSource: Space-Track

Epoche: Sep 14, 2026, 04:35 UTC

1 41379U 00055JY  26257.19137019  .00004677  00000-0  12326-2 0  9997
2 41379  98.8486  46.7818 0023984 172.5466 187.6087 14.49331273555302

Verfolge NOAA 16 DEB in Echtzeit mit AllMySat

Download on the App Store